User: anonymous   Login
Location: Bletchingley
(51.2333°N, 0.1000°W)
Time: 18:50:52
(UTC+00:00)
Language:

Cosmos 2285 Rocket - Orbit

View from above orbital plane
View from above orbital plane
View from above satellite
View from above satellite

Ground track
Ground track

The orbit data is extracted from the following two-line orbital elements,

1 23190U 94045B   20331.31784101  .00000102  00000-0  13207-3 0  9990
2 23190  74.0275 177.6653 0019935 230.2912 129.6451 13.74093115320033
Epoch (UTC): 26 November 2020 07:37:41
Eccentricity: 0.0019935
inclination: 74.0275°
perigee height: 970 km
apogee height: 999 km
right ascension of ascending node: 177.6653°
argument of perigee: 230.2912°
revolutions per day: 13.74093115
mean anomaly at epoch: 129.6451°
orbit number at epoch: 32003

The dashed part of the orbit path shows where the satellite is in the earth's shadow,  

DLR